Time,TemperatureF,DewpointF,PressureIn,WindDirection,WindDirectionDegrees,WindSpeedMPH,WindSpeedGustMPH,Humidity,HourlyPrecipIn,Conditions,Clouds,dailyrainin,SolarRadiationWatts/m^2,SoftwareType,DateUTC
2013-01-18 00:00:00,58.4,50.1,30.15,WNW,296,23.0,23.0,74,0.00,,,0.00,0,Wunderground v.1.15,2013-01-18 05:00:00,
2013-01-18 00:30:00,57.3,51.2,30.16,NNW,331,27.0,29.0,80,0.00,,,0.00,0,Wunderground v.1.15,2013-01-18 05:30:00,
2013-01-18 01:00:00,56.3,48.8,30.16,NW,323,27.0,29.0,76,0.00,,,0.00,0,Wunderground v.1.15,2013-01-18 06:00:00,
2013-01-18 01:30:00,55.4,48.7,30.17,NW,323,24.0,30.0,78,0.00,,,0.00,0,Wunderground v.1.15,2013-01-18 06:30:00,
2013-01-18 02:00:00,55.1,49.4,30.17,NNW,328,25.0,25.0,81,0.00,,,0.00,0,Wunderground v.1.15,2013-01-18 07:00:00,
2013-01-18 02:30:00,54.9,49.2,30.17,NW,317,26.0,26.0,81,0.00,,,0.00,0,Wunderground v.1.15,2013-01-18 07:30:00,
2013-01-18 03:00:00,54.5,49.8,30.18,NW,321,25.0,25.0,84,0.00,,,0.00,0,Wunderground v.1.15,2013-01-18 08:00:00,
2013-01-18 03:30:00,53.7,48.3,30.18,NNW,334,26.0,26.0,82,0.00,,,0.00,0,Wunderground v.1.15,2013-01-18 08:30:00,
2013-01-18 04:00:00,53.3,47.6,30.19,NNW,340,20.0,26.0,81,0.00,,,0.00,0,Wunderground v.1.15,2013-01-18 09:00:00,
2013-01-18 04:30:00,52.7,46.4,30.19,NNW,332,20.0,24.0,79,0.00,,,0.00,0,Wunderground v.1.15,2013-01-18 09:30:00,
2013-01-18 05:00:00,51.9,45.6,30.20,NW,323,21.0,21.0,79,0.00,,,0.00,0,Wunderground v.1.15,2013-01-18 10:00:00,
2013-01-18 05:30:00,49.3,44.7,30.22,NNE,32,19.0,19.0,84,0.00,,,0.00,0,Wunderground v.1.15,2013-01-18 10:30:00,
2013-01-18 06:00:00,47.4,41.9,30.23,NE,45,19.0,22.0,81,0.00,,,0.00,0,Wunderground v.1.15,2013-01-18 11:00:00,
2013-01-18 06:30:00,46.6,41.1,30.26,NNE,22,19.0,23.0,81,0.00,,,0.00,0,Wunderground v.1.15,2013-01-18 11:30:00,
2013-01-18 07:00:00,45.6,38.8,30.27,NNE,14,22.0,22.0,77,0.00,,,0.00,0,Wunderground v.1.15,2013-01-18 12:00:00,
2013-01-18 07:30:00,44.8,38.4,30.29,North,355,19.0,21.0,78,0.00,,,0.00,12,Wunderground v.1.15,2013-01-18 12:30:00,
2013-01-18 08:00:00,44.3,38.2,30.30,NNE,30,14.0,22.0,79,0.00,,,0.00,79,Wunderground v.1.15,2013-01-18 13:00:00,
2013-01-18 08:30:00,44.2,37.4,30.31,ENE,59,19.0,20.0,77,0.00,,,0.00,162,Wunderground v.1.15,2013-01-18 13:30:00,
2013-01-18 09:00:00,43.7,37.9,30.33,NE,37,17.0,25.0,80,0.00,,,0.00,320,Wunderground v.1.15,2013-01-18 14:00:00,
2013-01-18 09:30:00,45.2,38.1,30.33,ENE,61,3.0,3.0,76,0.00,,,0.00,367,Wunderground v.1.15,2013-01-18 14:30:00,
2013-01-18 10:30:00,48.7,41.1,30.32,NNE,17,6.0,6.0,75,0.00,,,0.00,519,Wunderground v.1.15,2013-01-18 15:30:00,
2013-01-18 11:00:00,50.9,42.6,30.31,NE,34,5.0,10.0,73,0.00,,,0.00,621,Wunderground v.1.15,2013-01-18 16:00:00,
2013-01-18 11:30:00,52.9,43.7,30.29,NNE,30,3.0,3.0,71,0.00,,,0.00,643,Wunderground v.1.15,2013-01-18 16:30:00,
2013-01-18 12:00:00,55.5,45.1,30.27,North,9,7.0,7.0,68,0.00,,,0.00,615,Wunderground v.1.15,2013-01-18 17:00:00,
2013-01-18 12:30:00,57.7,46.8,30.26,NE,55,10.0,10.0,67,0.00,,,0.00,687,Wunderground v.1.15,2013-01-18 17:30:00,
2013-01-18 13:00:00,59.2,47.8,30.24,NNE,32,9.0,11.0,66,0.00,,,0.00,629,Wunderground v.1.15,2013-01-18 18:00:00,
2013-01-18 13:30:00,60.7,48.4,30.23,NNE,33,9.0,9.0,64,0.00,,,0.00,707,Wunderground v.1.15,2013-01-18 18:30:00,
2013-01-18 14:00:00,61.3,49.4,30.22,NNE,19,10.0,10.0,65,0.00,,,0.00,257,Wunderground v.1.15,2013-01-18 19:00:00,
2013-01-18 14:30:00,62.1,50.6,30.21,NE,38,11.0,13.0,66,0.00,,,0.00,506,Wunderground v.1.15,2013-01-18 19:30:00,
2013-01-18 15:00:00,62.3,51.2,30.21,NNE,25,14.0,16.0,67,0.00,,,0.00,471,Wunderground v.1.15,2013-01-18 20:00:00,
2013-01-18 15:30:00,63.1,52.4,30.20,NE,49,12.0,12.0,68,0.00,,,0.00,239,Wunderground v.1.15,2013-01-18 20:30:00,
2013-01-18 16:00:00,63.3,53.0,30.22,NE,39,12.0,12.0,69,0.00,,,0.00,156,Wunderground v.1.15,2013-01-18 21:00:00,
2013-01-18 16:30:00,64.7,53.5,30.21,NE,53,11.0,13.0,67,0.00,,,0.00,125,Wunderground v.1.15,2013-01-18 21:30:00,
2013-01-18 17:00:00,63.8,54.6,30.22,NNE,22,14.0,14.0,72,0.00,,,0.00,134,Wunderground v.1.15,2013-01-18 22:00:00,
2013-01-18 17:30:00,63.1,54.7,30.23,NNE,30,13.0,19.0,74,0.00,,,0.00,67,Wunderground v.1.15,2013-01-18 22:30:00,
2013-01-18 18:00:00,61.6,56.7,30.24,NNE,17,13.0,13.0,84,0.00,,,0.00,0,Wunderground v.1.15,2013-01-18 23:00:00,
2013-01-18 18:30:00,60.8,57.2,30.24,NE,43,14.0,16.0,88,0.00,,,0.00,0,Wunderground v.1.15,2013-01-18 23:30:00,
2013-01-18 19:00:00,60.5,57.6,30.25,NE,34,14.0,14.0,90,0.00,,,0.00,0,Wunderground v.1.15,2013-01-19 00:00:00,
2013-01-18 19:30:00,60.6,58.0,30.26,NNE,26,11.0,11.0,91,0.00,,,0.00,0,Wunderground v.1.15,2013-01-19 00:30:00,
2013-01-18 20:00:00,60.7,58.1,30.27,NNE,33,13.0,13.0,91,0.00,,,0.00,0,Wunderground v.1.15,2013-01-19 01:00:00,
2013-01-18 20:30:00,60.7,58.1,30.27,NE,42,13.0,13.0,91,0.00,,,0.00,0,Wunderground v.1.15,2013-01-19 01:30:00,
2013-01-18 21:00:00,61.1,57.8,30.27,NNE,17,13.0,13.0,89,0.00,,,0.00,0,Wunderground v.1.15,2013-01-19 02:00:00,
2013-01-18 21:30:00,60.7,57.4,30.28,NE,34,13.0,15.0,89,0.00,,,0.00,0,Wunderground v.1.15,2013-01-19 02:30:00,
2013-01-18 22:00:00,59.5,56.6,30.27,NE,38,15.0,15.0,90,0.00,,,0.00,0,Wunderground v.1.15,2013-01-19 03:00:00,
2013-01-18 22:30:00,58.8,55.9,30.28,North,9,14.0,14.0,90,0.00,,,0.00,0,Wunderground v.1.15,2013-01-19 03:30:00,
2013-01-18 23:00:00,58.6,55.4,30.28,NE,34,7.0,7.0,89,0.00,,,0.00,0,Wunderground v.1.15,2013-01-19 04:00:00,
2013-01-18 23:30:00,58.7,54.8,30.27,NNE,17,11.0,12.0,87,0.00,,,0.00,0,Wunderground v.1.15,2013-01-19 04:30:00,